Tracking 28081 objects as of 27-Sep-2023
HD Live streaming from Space Station
objects crossing your sky now

NOAA 16 DEB

Track NOAA 16 DEB now!
10-day predictions


NORAD ID: 41052
Int'l Code: 2000-055K
Perigee: 757.7 km
Apogee: 1,003.6 km
Inclination: 98.7 °
Period: 102.4 minutes
Semi major axis: 7251 km
RCS: Unknown
Launch date: September 21, 2000
Source: United States (US)
Launch site: AIR FORCE WESTERN TEST RANGE (AFWTR)

Note: This is SATELLITE DEBRIS
Your satellite tracking list
Your tracking list is empty




NASA's NSSDC Master Catalog

Two Line Element Set (TLE):
1 41052U 00055K   23269.04775972  .00001660  00000-0  91311-3 0  9996
2 41052  98.6879 307.5754 0169519 125.5478 236.1630 14.05872830401728
Source of the keplerian elements: AFSPC